Weather in Ogorodtakh

Russia / Sakha (Yakutia) Republic     62°27′17″N   130°08′58″E
temp.,
°C
wind,
m/s
gust,
m/s
humid.,
%
clouds,
%
prec.,
mm/h
press.,
hPa
HPBL,
m
11 april, sun
sun1100:00−10n4995100 1.3 1017419
03:00−12nnw4995100 2.4 1016385
06:00−14nnw4991100 0.7 1016351
09:00−12nnw5991100 1.0 1016476
12:00−10nnw5986100 0.7 1016615
15:00−9nnw5992100 1.3 1016595
18:00−8nnw51194100 0.6 1017540
21:00−9n4994100 1.3 1018439
12 april, mon
mon1200:00−10n3695100 0.8 1019274
03:00−13nnw2596100 1.1 1019172
06:00−14nw2494100 0.3 1020146
09:00−11nw2381100 0.3 1020310
12:00−8nw2374100 0.0 1020634
15:00−6nw237237 0.0 1019753
18:00−7nnw12845 0.0 101962
21:00−18nw00985 0.0 10209
13 april, tue
tue1300:00−22sw1010075 0.0 10209
03:00−23ssw11100100 0.0 10209
06:00−23ssw11100100 0.0 102015
09:00−11sw1192100 0.1 1019231
12:00−6sw1181100 0.0 1017771
15:00−5ssw1174100 0.1 1016875
18:00−6sse118555 0.1 101523
21:00−16se11975 0.1 10159
14 april, wed
wed1400:00−20se1110068 0.0 10149
03:00−23se1110099 0.0 10149
06:00−22ese11100100 0.0 101319
09:00−8se2390100 0.0 1011332
12:00−4sse2378100 0.1 1009948
15:00−3ssw1273100 0.3 1008939
18:00−3w008620 0.1 100712
21:00−14ese119590 0.1 100710
15 april, thu
thu1500:00−17se119877 0.0 10069
03:00−14sse1197100 0.0 100624
06:00−11s1296100 0.1 100562
09:00−6s2392100 0.4 1005264
12:00−2w2388100 0.1 1006665
15:00−1nw128869 0.3 1007581
18:00−1ne118983 0.1 1008123
21:00−7se229890 0.2 101016